Weather Roundup
Issued by NWS

Home | Current Version | Previous Version | Text Only | Print | Product List | Glossary On
Versions: 1 2 3 4 5 6 7 8 9 10 11 12 13 14 15 16 17 18 19 20 21 22 23 24 25 26 27 28 29 30 31 32 33 34 35 36 37 38 39 40 41 42 43 44 45 46 47 48 49 50
000
NZUS93 KARX 270559
HRRWXR

CURRENT HOURLY OBSERVATIONS ACROSS
MUCH OF THE UPPER MISSISSIPPI VALLEY
NATIONAL WEATHER SERVICE LA CROSSE WI
1200 AM CST TUE JAN 27 2015


...SOUTHEAST MINNESOTA...


CITY           SKY/WX    TMP DP  RH WIND       PRES   REMARKS
ROCHESTER      CLOUDY    34  30  85 NW10      29.95R WCI  26
ROCHESTER/MAYO CLOUDY    36  29  75 NW9       29.95R WCI  29
WINONA         CLOUDY    32  28  86 CALM      29.97R
AUSTIN         CLOUDY    36  30  80 NW8       29.96R WCI  29
ALBERT LEA     CLOUDY    36  30  80 NW5       29.97R WCI  32
DODGE CENTER   CLOUDY    36  32  87 NW9       29.96R WCI  29
PRESTON        CLOUDY    34  30  86 NW8       29.94R WCI  27
OWATONNA       CLOUDY    34  30  86 NW9       29.98R WCI  26
FARIBAULT      CLOUDY    36  30  80 NW8       29.98R WCI  29
$$

...ELSEWHERE IN MINNESOTA...


CITY           SKY/WX    TMP DP  RH WIND       PRES   REMARKS
MINNEAPOLIS    CLOUDY    36  27  69 N8        29.99R WCI  30
INTNL FALLS    CLOUDY    25  21  85 W3        29.99R
DULUTH         CLOUDY    27  22  81 N7        29.96R WCI  19
RED WING       CLOUDY    37  28  70 N3        29.97R
REDWOOD FALLS  CLOUDY    32  29  88 N6        30.03R WCI  26
MANKATO        CLOUDY    34  28  80 NW10      30.00R WCI  26
WORTHINGTON    CLEAR     30  27  86 NW8       30.02R WCI  23
FAIRMONT       CLEAR     34  25  69 NW8       30.00R WCI  27
$$

...SOUTHWEST WISCONSIN...


CITY           SKY/WX    TMP DP  RH WIND       PRES   REMARKS
LA CROSSE      CLOUDY    30  27  88 NW3       29.95R FOG
PRAIRIE DU CHI CLOUDY    30  27  88 CALM      29.93R FOG
BOSCOBEL       CLOUDY    27  25  92 CALM      29.94R FOG
LONE ROCK      CLOUDY    25  23  92 CALM      29.93R
PLATTEVILLE    CLOUDY    26  26  96 CALM      29.90R
FORT MC COY    CLOUDY    27  27 100 CALM      29.94R FOG
CAMP DOUGLAS   CLOUDY    25  25 100 N1        29.92R
VIROQUA        CLOUDY    28  28 100 NW8       29.90R WCI  20
WIS DELLS      NOT AVBL
$$

...ELSEWHERE IN WISCONSIN...


CITY           SKY/WX    TMP DP  RH WIND       PRES   REMARKS
MILWAUKEE      LGT SNOW  27  21  78 CALM      29.93R
MADISON        CLOUDY    24  21  88 CALM      29.90S FOG
GREEN BAY      LGT SNOW  24  22  91 E6        29.97R FOG     WCI  17
EAU CLAIRE     NOT AVBL
BLACK RVR FLS  CLOUDY    26  26 100 CALM      29.94R FOG
MEDFORD        CLOUDY    20  19  93 NE3       29.90R
WAUSAU         CLOUDY    21  19  92 NE3       29.91R
WIS RAPIDS     CLOUDY    23  19  85 N3        29.94R
MARSHFIELD     CLOUDY    23  20  88 NE3       29.92R FOG
RICE LAKE      CLOUDY    31  26  83 N12       29.96R WCI  21
$$

...NORTHEAST IOWA...


CITY           SKY/WX    TMP DP  RH WIND       PRES   REMARKS
DECORAH        CLOUDY    36  34  93 NW8       29.92R WCI  29
MASON CITY     CLOUDY    34  30  85 NW10      29.99R WCI  26
CHARLES CITY   CLOUDY    36  34  93 NW12      29.96R WCI  27
OELWEIN        CLOUDY    34  32  93 NW14      29.93R WCI  24
$$

...ELSEWHERE IN IOWA...


CITY           SKY/WX    TMP DP  RH WIND       PRES   REMARKS
DES MOINES     MOCLDY    38  32  79 NW9       30.01R WCI  31
IOWA CITY      PTCLDY    36  33  89 NW8       29.95R WCI  30
FORT DODGE     CLOUDY    36  30  80 N7        30.02R WCI  30
$$

...NORTHERN ILLINOIS...


CITY           SKY/WX    TMP DP  RH WIND       PRES   REMARKS
CHICAGO-OHARE  LGT SNOW  26  24  92 SE5       29.90S FOG     WCI  20
CHICAGO-MIDWAY LGT SNOW  28  25  88 E6        29.91F FOG     WCI  22
MOLINE         CLOUDY    32  30  92 SW5       29.91R FOG     WCI  27
ROCKFORD       LGT SNOW  27  24  89 N3        29.92S FOG
PEORIA         CLOUDY    32  29  88 NW3       29.90R
$$

NOTE: "FAIR" INDICATES FEW OR NO CLOUDS BELOW 12,000 FEET WITH NO
SIGNIFICANT WEATHER AND/OR OBSTRUCTIONS TO VISIBILITY. WIND
SPEEDS ARE IN MILES-PER-HOUR.



USA.gov is the U.S. government's official web portal to all federal, state and local government web resources and services.